Tracking 29892 objects as of 21-Nov-2024
HD Live streaming from Space Station
objects crossing your sky now

ANSER-FLW2

Track ANSER-FLW2 now!
10-day predictions
ANSER-FLW2 is classified as:


NORAD ID: 58018
Int'l Code: 2023-155C
Perigee: 534.4 km
Apogee: 538.9 km
Inclination: 97.6 °
Period: 95.2 minutes
Semi major axis: 6907 km
RCS: Unknown
Launch date: October 9, 2023
Source: Spain (SPN)
Launch site: FRENCH GUIANA (FRGUI)

Uplink (MHz):
Downlink (MHz): 401.850
Beacon (MHz):
Mode: FM
Call sign:
Status: Unknown

Your satellite tracking list
Your tracking list is empty




NASA's NSSDC Master Catalog

Two Line Element Set (TLE):
1 58018U 23155C   24326.11896416  .00009904  00000-0  57719-3 0  9995
2 58018  97.6124  34.3867 0003298  44.2127 315.9366 15.12190674 61439
Source of the keplerian elements: AFSPC